ECMWFNIL_700_spd_105.txt.gz
Wind_Speed
19 20 19 18 17 16 14 13 12 12 11 10 10 10 10 8 7 6 6 6 6 5 5 5 5 6 6 5 6 7 8 8 8 8 8 8 7 7 7 7 6 6
18 19 20 19 19 17 16 14 13 13 13 12 12 12 11 10 9 7 6 7 7 6 5 5 5 5 5 5 5 6 8 9 8 8 8 8 7 7 7 7 7 7
17 18 19 19 19 18 17 16 15 14 14 14 13 12 12 11 10 9 8 8 8 7 6 5 5 5 5 4 4 5 6 8 8 8 8 8 8 7 8 8 7 8
17 17 18 19 19 19 18 17 16 15 15 14 14 13 12 12 11 10 9 8 8 7 7 6 5 4 4 4 4 4 5 6 7 8 8 8 8 8 8 8 9 9
19 18 17 18 20 20 20 19 17 16 15 14 14 14 13 12 11 10 9 9 8 8 7 7 6 5 5 4 4 4 5 5 6 8 8 8 9 9 9 9 9 10
21 20 19 18 19 21 21 20 18 17 16 16 15 15 14 13 12 10 10 9 9 8 8 8 7 7 6 6 5 5 5 6 6 7 8 9 9 9 9 10 10 11
23 22 21 20 20 20 21 21 20 19 18 17 17 16 15 14 13 12 11 10 10 9 9 8 8 8 7 7 6 6 6 6 7 7 8 8 9 9 9 10 11 11
23 23 23 22 21 20 20 21 21 21 20 19 19 18 17 16 14 14 13 12 12 11 10 10 10 9 9 8 8 8 8 8 8 8 8 8 8 9 9 10 11 12
23 23 23 24 23 22 21 21 21 22 22 21 20 19 18 17 16 15 14 14 13 13 13 12 11 11 10 10 9 9 9 9 9 9 9 9 9 9 9 10 11 12
24 23 23 24 24 24 23 22 22 22 23 23 22 21 20 19 18 17 16 15 14 14 14 13 13 13 12 11 11 11 11 11 11 10 10 10 11 11 11 11 12 13
26 25 24 23 23 23 23 23 23 23 23 23 23 23 22 21 20 19 18 16 15 14 14 14 14 15 15 14 14 13 13 13 13 12 12 12 12 12 12 12 13 14
28 27 26 24 24 23 23 23 24 24 24 24 24 24 23 23 22 21 19 18 17 16 16 16 15 16 16 16 16 16 15 15 14 14 14 14 14 14 14 14 14 15
28 28 27 26 25 24 24 24 24 24 25 25 25 25 25 25 24 23 22 20 19 19 18 17 17 17 17 18 18 18 17 17 16 16 16 16 16 15 15 15 16 16
28 28 27 27 27 26 26 25 25 25 25 25 26 26 27 27 26 25 24 24 23 21 20 20 20 20 19 19 19 20 19 19 18 18 18 18 18 18 18 17 17 18
26 27 28 28 28 27 27 27 27 27 27 27 26 27 27 28 27 27 27 26 26 25 24 23 22 21 21 20 20 20 21 21 20 20 20 20 20 20 20 20 19 20
25 26 27 28 28 28 28 28 28 28 29 28 28 28 28 27 27 28 28 27 27 27 26 26 24 23 21 21 21 21 22 22 23 22 22 22 22 22 22 22 22 21
24 25 26 27 28 29 29 29 29 29 29 29 29 29 29 29 28 28 28 28 27 27 27 28 26 24 23 23 23 23 23 24 24 24 24 24 24 24 23 23 23 23
24 24 25 27 28 29 29 30 30 30 30 30 30 30 30 30 30 30 29 29 29 28 28 28 27 26 25 25 24 24 25 25 25 25 26 26 26 25 25 25 25 25
23 24 25 26 28 29 30 30 31 31 31 30 30 30 31 31 31 31 31 31 31 30 28 28 28 27 26 26 26 26 26 27 27 27 27 27 27 26 26 26 26 26
23 24 24 25 27 29 30 31 32 32 31 31 31 31 31 31 31 31 31 32 32 31 30 30 28 27 27 27 27 26 27 27 28 28 28 28 28 27 27 27 27 27
24 24 25 25 26 28 30 32 33 33 33 32 32 31 31 31 30 30 30 30 31 31 32 31 29 27 27 27 27 27 27 28 29 29 29 29 28 28 28 28 27 28
25 25 26 26 27 28 30 32 34 34 34 33 32 31 30 30 30 29 29 29 30 30 31 30 28 27 28 27 27 27 28 29 30 30 30 30 29 29 29 29 29 29
28 27 26 27 28 30 31 32 33 34 34 34 33 31 30 28 28 28 28 28 29 30 30 29 28 28 28 28 28 28 30 30 30 31 31 31 31 30 30 30 30 30
29 28 27 26 28 31 32 32 33 33 34 34 33 32 30 29 28 28 28 28 28 28 28 29 28 28 29 29 29 30 31 31 31 32 33 33 32 32 31 31 31 30
30 30 28 26 27 30 32 32 32 32 32 33 33 32 31 29 28 28 27 27 27 27 27 27 27 27 29 30 30 31 32 32 32 33 34 34 33 33 33 32 32 31
31 31 30 28 27 28 31 32 32 31 32 32 32 31 30 29 28 27 26 26 26 26 26 25 25 26 27 29 30 31 32 32 32 33 34 33 33 33 34 34 33 32

ECMWFNIL_700_spd_108.txt.gz
Wind_Speed
19 19 17 16 15 14 13 12 12 11 11 12 13 13 13 13 12 11 10 9 9 8 8 9 9 9 8 8 8 9 10 11 11 12 12 12 10 9 9 9 9 9
19 19 19 17 16 14 13 13 13 13 13 13 13 14 13 13 13 12 11 10 9 9 8 9 9 9 9 9 9 9 9 10 11 11 12 12 10 9 9 9 9 9
19 20 19 18 16 15 15 15 14 14 14 14 14 13 13 13 13 13 12 11 10 9 9 8 9 9 9 9 9 9 9 9 10 11 12 12 10 10 10 10 10 10
18 19 19 19 18 17 17 16 15 15 15 15 14 14 13 13 12 12 12 12 11 10 9 8 8 8 8 9 9 9 9 9 10 10 11 12 11 10 11 10 10 11
18 18 19 20 20 19 18 17 16 16 16 15 15 15 14 13 13 12 12 12 12 10 9 9 8 8 7 8 8 8 9 9 9 10 11 11 11 11 11 11 11 11
19 18 18 19 20 21 20 19 18 17 17 17 17 16 15 15 14 13 12 12 12 11 10 10 9 8 8 7 7 8 8 8 9 9 10 11 11 11 11 11 11 11
20 19 19 19 20 21 21 21 19 19 18 19 19 18 17 16 15 14 13 13 13 12 12 11 10 10 9 8 7 7 8 8 9 9 10 11 11 11 11 11 11 12
21 21 21 20 20 21 22 22 21 20 20 20 20 19 18 17 16 15 14 14 14 14 13 13 12 11 10 9 9 8 8 8 9 10 10 10 10 10 11 11 12 12
22 22 22 22 22 21 21 22 22 21 21 21 21 20 19 18 17 16 16 15 15 15 15 14 13 13 12 11 10 10 9 9 10 10 10 10 10 10 11 11 12 12
22 22 23 23 23 22 21 21 22 23 23 22 22 22 21 19 18 18 17 17 16 16 15 15 14 13 12 12 12 12 11 11 11 11 11 11 11 11 11 11 12 12
24 23 23 23 23 23 23 22 22 23 23 23 23 23 22 21 20 19 18 18 17 16 16 16 15 15 14 14 14 13 13 13 13 12 12 12 12 12 12 12 12 13
27 26 24 23 23 23 23 23 23 23 23 24 24 24 23 22 22 21 20 19 18 17 17 17 16 16 16 16 15 15 15 15 14 14 14 14 14 14 14 14 13 13
28 27 25 24 23 23 23 23 24 24 24 24 25 25 25 24 24 23 22 21 20 20 19 18 18 18 18 17 18 18 17 16 16 15 15 15 16 16 16 15 15 15
27 27 26 26 25 24 24 23 24 25 25 25 26 26 26 26 25 25 24 23 22 22 21 21 20 20 19 19 19 19 19 18 18 17 17 17 17 17 17 17 17 17
27 27 27 27 26 26 25 25 25 25 26 26 26 27 27 27 27 27 26 25 25 24 23 23 23 22 21 20 20 20 20 20 20 20 19 19 19 19 19 19 19 18
29 28 28 27 27 27 26 26 26 26 27 27 27 27 28 28 28 29 28 28 27 26 25 25 25 24 23 22 21 21 20 21 22 22 22 22 21 21 21 21 21 20
31 30 30 29 29 28 27 27 27 28 28 28 28 29 29 29 29 29 29 29 29 28 28 28 27 25 23 23 23 23 22 23 23 23 24 24 24 24 23 22 22 22
31 32 32 32 31 30 29 29 29 29 30 29 29 29 30 30 31 30 30 30 30 30 29 29 28 27 25 24 24 25 25 25 25 25 25 26 26 26 25 25 24 24
31 32 33 33 33 32 32 32 32 32 31 31 30 30 31 31 31 31 31 31 31 31 30 29 29 28 27 26 25 26 26 27 27 27 27 27 27 28 27 27 27 26
31 31 31 32 33 34 34 34 34 34 33 33 33 33 33 33 32 32 33 33 33 33 31 30 29 28 28 27 27 27 27 28 29 29 29 29 28 29 29 29 28 28
31 32 32 32 34 35 35 36 36 35 35 35 35 35 35 34 33 33 33 33 34 34 33 33 31 29 28 28 28 28 28 29 30 31 31 31 30 29 29 29 29 29
29 31 32 33 34 35 36 37 37 37 36 36 37 37 36 35 34 34 34 34 34 34 34 34 32 31 30 29 28 29 30 31 31 32 32 32 31 30 30 30 30 30
28 30 31 31 33 34 36 38 39 38 38 38 38 38 36 35 34 34 34 34 34 34 35 34 33 32 32 30 30 30 32 33 33 33 33 33 32 32 31 31 31 31
29 30 31 31 32 33 35 37 39 40 40 40 39 39 37 35 34 34 34 34 34 34 34 34 33 33 32 31 31 32 33 34 34 34 34 34 33 33 33 33 32 31
30 31 33 33 34 34 35 36 38 39 41 42 41 40 39 37 36 35 34 34 34 34 34 34 34 34 34 33 33 33 34 34 35 35 35 35 34 34 34 34 33 33
31 32 34 35 35 36 36 37 38 38 39 41 42 41 41 40 39 37 36 35 35 34 34 34 34 34 34 33 33 34 35 35 36 37 36 35 34 34 34 34 34 34

ECMWFNIL_700_spd_111.txt.gz
Wind_Speed
19 18 17 16 15 14 13 11 10 10 10 10 11 11 11 11 11 11 10 10 9 8 8 9 9 10 10 10 11 11 11 12 12 12 12 12 11 10 10 9 9 9
19 19 19 17 16 14 13 12 11 11 11 11 12 12 12 12 11 11 11 10 9 8 8 9 9 10 10 10 11 11 11 12 12 12 12 13 11 10 11 10 10 10
19 19 19 18 16 15 14 14 13 12 12 12 12 12 12 12 12 12 11 11 10 9 9 9 9 9 9 10 10 11 12 12 13 12 12 13 12 11 11 11 10 10
19 19 19 18 17 17 16 16 15 14 13 13 13 13 12 12 13 13 12 11 11 10 9 9 9 9 9 9 10 10 11 12 12 12 13 13 12 12 11 11 11 10
19 19 19 19 19 18 17 17 16 15 15 14 14 14 13 13 13 13 13 12 12 11 11 10 10 10 9 9 9 9 10 11 12 12 13 13 13 12 12 12 12 12
19 19 19 20 20 19 18 18 17 17 17 16 16 15 14 14 13 13 13 13 13 13 12 11 10 10 10 10 10 10 10 10 11 12 12 13 13 13 12 12 13 13
19 19 19 20 20 20 19 18 18 18 18 18 18 17 16 15 14 14 13 13 14 14 14 13 12 11 11 10 10 10 10 10 11 11 12 13 13 13 13 13 13 13
21 20 19 19 20 20 20 20 19 19 19 19 19 18 18 17 15 15 14 14 15 15 15 14 14 13 12 11 11 11 11 11 10 10 11 12 13 13 13 13 12 12
22 22 21 20 20 20 21 21 21 20 20 20 20 19 19 19 18 16 16 16 16 16 16 15 15 14 13 13 12 12 11 11 11 10 10 11 12 13 13 13 13 13
22 22 22 22 21 20 20 20 21 21 21 21 21 21 20 20 19 19 18 17 17 17 17 16 16 15 15 14 13 12 12 12 12 11 11 11 12 12 13 13 13 13
22 22 22 23 22 21 20 20 20 21 21 22 22 22 22 21 20 20 19 19 18 18 18 17 17 17 16 16 15 14 14 13 13 13 12 12 12 12 13 13 13 13
23 23 22 23 23 22 22 21 21 22 22 22 22 23 24 23 22 21 21 20 19 19 19 18 18 18 18 17 17 16 16 15 15 14 14 13 13 13 13 13 13 13
24 24 23 23 23 23 23 23 23 23 23 23 22 23 24 25 24 23 22 21 20 20 20 20 20 20 19 19 19 18 18 17 16 15 15 15 14 14 14 14 14 14
26 26 26 25 24 24 24 24 24 24 25 25 24 23 24 25 26 25 24 23 22 22 22 21 21 21 21 21 21 21 20 19 18 17 17 16 16 16 16 16 16 15
29 28 29 28 27 27 26 25 25 25 26 27 26 25 25 25 26 27 26 25 25 24 24 24 24 23 23 22 21 21 21 21 20 19 19 18 18 18 18 18 17 17
32 32 31 30 29 29 28 28 28 27 26 27 27 27 27 27 27 27 28 27 26 26 26 26 26 25 24 23 22 21 21 21 21 21 21 21 20 20 20 19 19 19
34 34 32 31 30 30 30 29 30 30 29 29 28 28 28 28 28 28 29 29 28 27 27 28 28 27 26 24 22 22 21 21 22 22 22 22 22 22 22 21 21 21
35 36 35 32 31 31 31 31 31 31 32 32 31 30 30 29 29 30 30 31 31 30 29 29 29 28 27 26 24 24 24 23 24 23 23 23 24 24 24 23 23 23
32 35 37 35 33 32 32 32 32 33 33 33 33 33 33 32 32 32 31 31 31 32 32 30 29 29 29 28 26 25 26 26 26 26 26 25 25 25 25 25 25 25
28 31 36 37 36 35 35 34 34 34 33 33 33 33 34 34 34 34 34 33 33 33 33 32 31 30 30 29 27 27 27 28 29 29 29 28 28 27 27 27 27 27
28 29 33 36 37 38 38 38 37 36 35 35 34 35 35 34 34 34 35 35 35 35 35 34 33 32 31 29 27 27 27 28 30 31 32 32 31 30 30 29 28 28
31 28 31 34 36 37 38 39 39 39 39 39 39 38 38 37 36 35 35 35 35 35 36 36 35 34 33 31 28 27 28 29 31 32 33 34 34 33 32 31 31 30
36 33 32 32 33 35 37 38 38 38 39 40 40 41 41 41 39 38 38 38 36 35 35 36 36 35 35 34 32 30 30 30 32 33 34 35 35 35 34 33 33 32
37 37 36 33 32 33 34 37 38 37 38 39 39 40 40 40 39 39 39 39 38 37 36 36 34 35 36 35 34 33 33 33 34 34 36 36 37 36 36 35 34 34
30 34 35 35 35 33 33 35 37 37 38 39 40 39 40 39 39 40 39 38 36 37 38 37 35 35 36 37 35 34 34 35 36 37 38 39 39 38 38 38 37 35
25 28 31 33 36 36 34 34 36 37 37 39 40 40 40 40 40 41 41 39 37 36 37 37 36 37 38 37 35 35 35 35 36 38 40 41 41 41 40 40 39 37

ECMWFNIL_700_spd_114.txt.gz
Wind_Speed
17 16 15 14 13 13 12 10 9 9 9 9 9 8 8 7 8 9 8 8 7 7 7 7 7 7 8 8 9 9 9 11 13 13 13 13 12 12 11 11 11 10
17 17 16 15 15 14 13 12 11 10 9 9 9 9 9 8 8 8 8 8 8 7 7 7 8 8 8 8 8 9 8 9 12 13 12 13 12 12 12 12 11 11
17 18 17 16 15 15 14 14 12 11 10 10 10 10 10 9 8 8 8 8 8 8 8 7 7 8 9 8 8 8 8 9 12 12 12 13 13 12 12 12 12 12
18 18 17 17 17 16 15 15 14 13 11 11 10 10 10 10 10 9 9 9 9 8 8 7 8 8 8 8 8 8 8 9 10 11 11 12 13 13 13 12 12 12
17 18 18 18 18 18 17 16 15 14 13 12 12 11 11 10 10 10 10 10 10 9 9 8 8 8 8 8 8 8 9 9 10 10 10 12 13 13 13 12 12 12
17 17 18 19 19 19 18 17 16 15 15 14 13 13 12 11 10 10 10 11 11 10 10 9 8 8 8 8 8 8 9 9 10 10 10 11 13 13 12 12 12 12
18 17 18 19 20 20 19 18 17 17 17 16 15 14 13 12 11 10 10 11 12 12 11 11 10 9 9 9 8 8 8 9 9 10 10 11 12 13 13 12 12 12
19 18 18 18 20 20 20 19 19 18 18 18 17 16 14 13 12 11 11 11 11 12 12 12 11 11 10 9 9 8 8 9 9 9 10 11 12 13 13 13 12 12
20 20 19 18 19 20 20 20 20 19 19 19 18 17 16 15 14 13 12 12 12 12 12 12 12 12 11 10 10 9 9 9 9 9 10 11 12 13 14 14 13 13
20 20 20 20 19 19 19 20 21 21 20 20 19 18 17 17 16 15 14 13 13 12 12 13 12 12 11 11 11 10 10 10 9 9 9 10 11 12 13 14 13 13
20 20 20 21 21 20 19 19 20 21 21 21 20 19 19 18 17 17 16 15 14 13 12 13 13 13 12 12 12 11 11 11 10 10 9 9 10 11 12 13 13 13
22 22 21 20 21 21 20 20 20 21 21 22 22 21 21 20 19 18 17 16 15 14 14 13 14 14 13 13 13 13 12 12 12 11 11 11 10 11 11 11 11 12
25 25 23 21 21 21 21 21 22 22 22 22 21 21 23 23 22 20 18 17 16 15 15 15 15 15 15 14 14 14 14 14 13 12 12 12 12 11 11 11 11 11
28 29 29 27 24 22 21 22 23 23 23 23 21 21 22 23 23 22 20 19 17 16 16 16 16 16 16 16 15 15 15 14 14 14 13 13 13 13 13 13 13 13
30 30 30 29 26 25 24 23 23 23 24 25 24 22 21 21 22 22 22 21 19 18 18 17 17 17 17 17 16 16 16 15 15 15 15 15 14 14 14 15 15 15
31 31 31 30 28 28 28 27 26 24 23 24 26 25 24 22 21 22 22 22 20 20 20 19 19 19 18 17 16 16 16 15 15 15 16 17 17 16 17 17 16 16
28 30 31 29 27 28 29 30 31 30 27 26 26 26 26 25 23 22 22 22 21 20 19 20 21 21 20 18 17 17 17 17 17 17 16 17 17 18 18 18 18 18
26 28 30 29 27 28 29 31 33 32 31 33 30 27 27 26 25 24 23 23 23 22 21 20 20 21 22 20 18 18 19 19 19 19 19 19 18 18 19 19 19 20
27 28 30 31 31 30 30 31 33 33 32 32 32 32 31 28 25 25 24 23 23 24 23 21 20 21 22 22 20 19 19 21 21 22 23 22 22 21 20 20 20 20
28 28 30 32 31 31 31 31 31 31 31 32 30 29 29 28 26 25 25 24 24 24 24 23 23 22 22 22 22 21 21 21 22 23 25 25 25 25 24 24 23 22
29 30 31 32 31 31 31 32 32 31 31 31 31 30 29 29 29 28 27 26 26 26 25 24 24 24 24 22 21 21 22 23 23 24 26 27 27 27 27 27 26 26
28 30 30 30 30 30 31 32 33 33 32 31 31 31 31 32 32 30 29 29 29 29 28 28 27 26 26 24 22 21 21 22 23 25 26 27 28 29 29 29 28 28
24 27 29 29 30 29 30 31 32 32 32 31 30 30 31 31 31 31 31 31 30 30 31 31 30 29 29 28 27 25 23 23 23 24 26 27 28 29 30 31 31 30
19 22 26 28 29 30 31 31 30 31 31 31 30 30 31 31 31 32 32 32 32 32 32 31 29 29 29 29 29 29 29 27 26 25 27 28 28 29 30 32 32 31
14 16 20 24 27 29 31 31 31 31 31 31 32 33 34 33 33 34 34 34 34 33 33 32 31 29 29 28 28 28 28 28 28 28 29 29 30 30 31 32 33 33
12 12 14 17 20 24 27 29 31 31 32 33 34 35 35 34 33 34 34 34 35 35 34 33 33 31 30 28 27 27 27 27 28 28 28 29 30 31 32 33 34 34

ECMWFNIL_700_spd_117.txt.gz
Wind_Speed
11 11 10 9 8 8 8 9 8 8 8 8 7 7 7 6 6 6 5 4 4 3 4 4 4 4 4 4 6 7 9 10 11 11 12 12 12 11 11 10 9 8
12 12 11 10 9 8 8 8 7 7 7 7 7 7 7 6 6 6 5 4 4 3 3 3 4 4 4 4 5 5 7 9 11 11 11 11 11 12 12 11 10 10
12 12 12 11 10 9 9 9 8 7 7 7 7 7 7 6 6 6 5 5 5 3 3 3 3 3 4 4 4 5 5 7 9 11 11 11 12 12 12 11 11 11
11 11 12 12 11 10 10 10 9 8 7 6 6 6 6 6 6 6 5 5 4 4 3 3 3 3 4 4 4 4 5 5 7 10 10 11 12 12 12 12 12 12
10 11 11 12 12 11 11 10 10 9 7 6 5 5 5 5 5 5 5 5 5 4 4 4 4 4 3 4 4 4 5 5 6 8 10 10 11 12 12 12 12 12
11 11 11 12 13 13 12 11 11 10 9 7 7 6 5 4 4 5 5 5 6 5 5 4 4 4 4 4 4 4 5 5 5 7 8 9 10 12 11 11 12 11
13 12 11 11 13 13 14 13 12 12 10 9 9 8 7 5 5 5 5 5 6 6 6 6 5 5 5 5 5 5 5 5 5 6 7 8 10 11 11 11 11 11
15 14 12 11 12 13 14 14 14 13 12 11 10 9 9 7 6 6 6 5 6 6 7 7 7 7 6 6 5 5 5 6 6 6 7 8 9 10 11 11 11 11
17 16 14 13 12 12 13 14 14 14 13 12 12 11 11 10 8 8 8 7 7 7 7 7 7 8 8 7 6 6 6 6 6 6 6 7 8 9 11 11 11 11
17 17 16 15 13 12 11 11 12 13 14 13 13 12 12 11 10 10 10 9 8 8 7 7 7 8 9 9 8 8 7 7 7 7 6 6 7 8 10 11 11 11
17 17 17 16 15 14 13 12 11 12 13 13 14 14 14 13 12 12 12 11 10 9 9 8 8 8 9 10 10 9 9 9 8 8 7 7 7 7 8 9 10 11
17 17 16 16 16 16 16 15 14 13 12 12 13 14 15 16 14 13 13 12 11 11 11 10 9 9 10 10 11 11 11 10 10 10 9 8 8 8 8 8 9 10
19 17 17 17 18 18 17 17 16 15 15 14 14 14 15 17 17 16 14 13 12 12 12 12 12 12 11 11 12 11 11 11 11 11 10 10 9 9 9 9 9 9
21 21 20 20 19 19 19 19 17 16 16 16 15 14 14 16 18 18 17 15 14 13 13 13 13 13 13 13 13 12 12 11 11 12 12 11 11 11 11 10 10 10
24 24 23 22 22 21 21 20 18 18 18 17 16 15 15 16 17 18 18 16 15 15 15 14 14 14 14 14 13 13 12 12 11 12 12 13 13 12 12 12 11 11
23 23 23 23 23 23 22 21 20 20 19 19 19 18 17 17 18 18 19 17 15 15 16 16 16 15 15 14 14 14 13 13 12 12 12 13 13 14 14 14 14 13
20 21 22 22 24 24 24 24 22 21 21 21 21 18 17 19 19 19 19 19 16 15 15 16 17 17 16 15 15 15 15 15 14 13 13 13 13 14 13 13 14 14
18 19 20 22 23 24 25 26 24 23 22 22 23 21 18 19 21 21 22 21 20 17 16 16 17 18 18 18 17 17 17 17 17 16 15 14 14 14 14 13 14 14
19 19 19 20 21 23 25 25 24 24 24 24 26 25 22 21 22 23 24 24 23 21 19 18 18 18 20 21 20 20 20 20 20 21 20 19 17 16 15 14 14 14
19 20 20 20 20 21 22 23 23 24 25 27 27 25 22 22 24 26 26 26 25 24 22 21 20 20 20 21 22 22 21 22 23 23 24 24 22 21 19 17 17 16
18 20 21 21 21 21 21 22 23 24 26 27 27 25 22 22 24 27 28 29 29 27 25 23 23 21 20 19 20 21 22 23 24 24 25 26 25 25 24 22 21 20
17 18 19 19 20 21 22 23 24 25 26 26 26 26 25 23 23 24 27 29 30 30 28 26 24 24 23 21 21 20 21 22 23 25 26 27 27 26 26 26 25 24
16 17 18 19 19 20 21 22 24 25 25 25 26 27 28 27 25 25 26 28 29 31 31 30 27 26 26 26 25 24 24 24 24 24 25 27 27 27 26 27 27 26
14 15 17 18 18 19 21 23 24 24 23 23 25 27 28 28 26 26 27 28 29 31 33 33 31 29 29 29 29 29 29 28 28 27 27 27 27 27 27 27 27 27
8 10 12 14 15 17 18 21 22 22 22 23 24 26 27 26 25 25 25 26 28 29 32 33 33 32 32 32 31 30 30 30 31 31 30 29 29 28 28 28 27 27
7 6 7 8 9 11 13 16 18 19 21 23 25 25 26 25 25 24 24 24 26 26 28 32 33 34 34 34 32 31 31 31 31 32 31 30 30 30 30 29 29 29

ECMWFNIL_700_spd_123.txt.gz
Wind_Speed
12 11 11 10 10 10 11 10 10 10 10 11 12 12 12 10 9 9 9 10 10 10 10 10 11 12 11 12 11 11 11 11 10 10 11 11 10 9 8 8 7 7
13 12 12 10 10 10 9 10 10 10 10 10 11 11 11 10 9 9 9 9 9 9 9 9 9 10 10 11 12 12 11 11 11 11 12 12 12 11 10 9 8 8
14 13 13 11 10 10 9 10 10 11 11 10 10 10 10 10 10 9 9 9 9 9 8 8 9 9 9 10 11 11 12 12 12 12 12 13 13 12 11 11 10 9
14 14 14 13 12 11 11 11 10 10 10 9 9 9 10 10 10 10 9 8 8 8 7 8 8 9 9 9 10 10 11 11 12 12 13 13 13 13 12 12 11 10
15 15 15 15 14 13 12 11 11 10 10 9 10 10 10 10 10 10 9 9 8 7 6 7 7 8 8 9 9 10 10 11 11 11 12 13 14 14 13 13 12 11
17 17 17 16 16 15 14 13 12 12 11 10 10 10 11 10 10 10 10 9 9 8 7 7 6 6 7 8 9 9 9 10 10 10 11 13 14 14 14 13 13 12
18 18 18 18 18 17 16 15 15 14 13 12 11 11 11 11 10 10 10 10 10 9 8 8 7 6 6 6 7 8 8 9 10 9 10 12 13 14 14 14 14 13
20 19 19 19 20 19 18 17 17 16 15 14 12 12 11 11 11 11 11 11 11 10 10 9 8 7 6 6 6 7 7 8 9 9 9 10 11 12 12 13 14 14
22 21 21 21 21 21 20 19 18 17 17 15 14 13 13 12 12 12 12 12 11 11 11 10 10 9 8 7 7 6 6 7 8 8 8 9 10 10 10 11 12 12
23 22 22 22 22 22 21 21 20 19 18 17 16 15 15 14 13 13 13 12 11 11 11 10 10 10 9 9 8 7 7 7 7 7 7 8 8 9 9 9 10 11
23 23 22 22 21 22 22 22 22 21 20 19 18 17 17 16 16 16 15 13 12 11 11 10 10 10 10 10 9 9 8 8 7 7 7 7 7 8 8 8 9 10
23 23 22 21 20 20 21 23 23 23 22 21 20 19 19 18 18 17 17 15 14 14 13 12 11 11 10 10 10 10 9 9 8 8 8 8 8 8 8 8 9 10
23 23 22 22 21 20 21 22 23 23 23 22 21 20 20 19 19 18 18 17 16 16 15 14 13 13 12 11 11 11 10 10 9 9 9 9 9 9 9 9 9 9
23 23 24 24 23 23 22 23 23 23 23 23 22 22 21 20 19 19 19 18 18 17 17 16 16 15 14 13 12 11 11 11 11 11 11 11 11 11 11 11 10 10
23 24 27 27 26 26 25 25 25 25 25 25 24 24 23 22 21 21 20 20 19 19 18 18 18 17 16 15 14 14 13 13 13 13 13 12 13 13 13 13 12 11
22 24 26 28 28 27 26 26 26 25 25 25 25 25 24 24 23 23 22 21 20 20 20 19 18 17 17 17 16 16 16 16 15 15 15 15 14 14 14 14 14 13
22 23 25 27 28 27 25 25 26 26 25 24 24 24 25 25 24 24 23 22 22 22 22 21 20 18 17 17 18 18 18 18 18 17 17 17 16 16 16 15 15 15
23 24 25 27 27 26 25 26 28 28 27 26 25 24 25 25 24 23 23 22 21 21 21 22 21 20 19 19 19 20 20 20 20 19 19 19 19 18 18 17 17 17
22 23 25 26 26 25 25 27 29 29 28 28 27 26 27 27 26 24 24 23 22 21 21 21 21 21 21 21 21 21 22 22 22 21 21 21 21 20 20 19 19 18
18 20 22 24 24 25 26 27 29 28 28 29 28 27 28 29 29 28 26 25 24 23 22 21 21 20 20 21 21 21 22 23 23 23 23 22 22 21 20 19 19 19
15 17 20 21 21 22 24 26 28 28 28 30 29 28 29 30 30 30 29 28 27 25 24 23 22 21 21 20 20 21 21 23 23 24 24 23 22 22 21 20 19 19
17 18 20 20 20 20 21 24 26 27 28 29 30 28 28 29 31 31 31 31 29 26 25 24 23 23 22 22 22 22 22 23 24 24 24 24 23 22 22 22 22 22
20 20 20 21 20 19 21 22 24 25 26 26 26 25 25 27 30 32 33 34 32 27 25 26 26 26 26 25 25 24 24 25 25 25 25 24 24 23 23 23 23 24
19 20 20 21 20 20 21 22 23 23 23 23 22 22 22 24 27 30 31 32 31 27 26 27 27 27 28 27 27 26 26 26 27 27 27 27 26 25 25 24 24 24
18 19 20 20 20 20 22 23 23 23 23 23 23 23 22 22 24 26 27 28 29 27 26 26 26 27 28 28 28 28 27 28 28 29 30 29 29 28 27 26 25 25
16 17 17 18 19 19 20 21 23 23 23 24 25 25 23 23 23 25 27 29 29 27 26 26 26 28 28 29 29 29 29 29 29 29 30 31 31 31 30 29 28 27